This is the latest recevied weather packets stored in our database for station/object DW9280. If no packets are shown the sender has not sent any weather packets the latest 1 day(s).
| Time | Temp. | Humidity | Pressure | Rain* | Wind** | Luminosity | Snow |
|---|---|---|---|---|---|---|---|
| 1778053444 | 12.78° C | 72% | 1008.9 hPa | 0 mm | - | 378 W/m² | - |
| 1778053147 | 12.78° C | 72% | 1008.8 hPa | 0 mm | - | 332 W/m² | - |
| 1778052844 | 12.22° C | 71% | 1008.8 hPa | 0 mm | - | 306 W/m² | - |
| 1778052544 | 12.22° C | 71% | 1008.8 hPa | 0 mm | - | 357 W/m² | - |
| 1778052365 | 12.22° C | 71% | 1008.7 hPa | 0 mm | - | 294 W/m² | - |
| 1778052064 | 12.22° C | 72% | 1008.7 hPa | 0 mm | - | 278 W/m² | - |
| 1778050745 | 11.67° C | 77% | 1008.6 hPa | 0 mm | - | 302 W/m² | - |
| 1778050444 | 11.67° C | 78% | 1008.5 hPa | 0 mm | - | 248 W/m² | - |
| 1778050144 | 11.11° C | 79% | 1008.5 hPa | 0 mm | - | 237 W/m² | - |
| 1778049545 | 11.11° C | 79% | 1008.5 hPa | 0 mm | - | 125 W/m² | - |
| 1778048945 | 11.11° C | 83% | 1008.5 hPa | 0 mm | - | 107 W/m² | - |
| 1778048643 | 11.11° C | 84% | 1008.5 hPa | 0 mm | - | 165 W/m² | - |
| 1778047744 | 11.11° C | 84% | 1008.3 hPa | 0 mm | - | 121 W/m² | - |
| 1778047551 | 11.11° C | 84% | 1008.3 hPa | 0 mm | - | 95 W/m² | - |
| 1778047146 | 11.11° C | 84% | 1008.3 hPa | 0 mm | - | 84 W/m² | - |
| 1778046843 | 11.11° C | 84% | 1008.4 hPa | 0 mm | - | 90 W/m² | - |
| 1778046544 | 10.56° C | 84% | 1008.4 hPa | 0 mm | - | 83 W/m² | - |
| 1778046244 | 10.56° C | 85% | 1008.3 hPa | 0 mm | - | 77 W/m² | - |
| 1778045945 | 11.11° C | 86% | 1008.3 hPa | 0 mm | - | 67 W/m² | - |
| 1778045344 | 11.11° C | 86% | 1008.4 hPa | 0 mm | - | 44 W/m² | - |
| 1778044746 | 10.56° C | 86% | 1008.3 hPa | 0 mm | - | 35 W/m² | - |
| 1778044143 | 10.56° C | 86% | 1008.3 hPa | 0 mm | - | 21 W/m² | - |
| 1778043842 | 10.56° C | 86% | 1008.3 hPa | 0 mm | - | 16 W/m² | - |
| 1778042942 | 10.56° C | 86% | 1008.4 hPa | 0 mm | - | 9 W/m² | - |
| 1778042128 | 10.56° C | 86% | 1008.4 hPa | 0 mm | - | 5 W/m² | - |
* Rain latest hour (hover to see other rain measurements)
** Current wind speed in m/s (hover to see current wind gust speed)